Hlavní strana
METAR-TAF:

METAR-TAF

Letiště :

Downtown_Memorial_Airport

Spartanburg, Jižní Karolína, Spojené státy americké

zeměpisná šířka: 34-55N, zeměpisná délka: 081-57W, výška: 246 m

Aktuální stav počasí

Zpráva byla vytvořena před 21 minutami, v 17:15 UTC
Severoseverovýchodní vítr 9 kt s nárazy do 14 kt
Teplota 8°C
Vlhkost vzduchu 57%
Tlak 1021 hPa
Viditelnost: 16.1 km
Polojasno ve výšce 4500 ft
Oblačno až skoro zataženo ve výšce 10000 ft

METAR: KSPA 151715Z AUTO 03009G14KT 10SM SCT045 BKN100 08/00 A3015 RMK AO2

Čas: 12:36 (17:36 UTC)


TAF: chybějící

Stav a předpovědi počasí z více než 4 000 letišť (zprávy METAR a TAF).

Červené a žluté tečky na mapě představují dostupné meteorologické stanice.

Když kurzor umístíte na tečku, zobrazí se název stanice.

Pak kliknutím zobrazíte stav a předpověď počasí.

Chcete-li změnit mapu, kliknutím na zelené tlačítko se znaménkem +mapu přiblížíte, kliknutím na zelené tlačítko se znaménkem – mapu oddálíte a kliknutím na zelené šipky přejdete na sousední mapy.


METAR-TAF: